Wind_Speed
66 67 67 63 58 57 54 55 52 49 45 41 40 42 40 37 36 39 39 39 37 37 35 29 30 27 25 22 25 27 28 28 25 24 24 24 26 28 26 32 35 33 34 36 39
75 75 66 72 63 62 59 58 53 52 47 42 40 42 40 41 41 41 41 42 39 41 42 37 32 33 29 27 23 28 30 29 27 27 27 27 28 30 32 33 35 37 37 38 40
77 78 72 80 72 66 66 61 56 54 50 48 45 44 41 41 42 43 42 44 44 43 43 43 37 36 35 34 35 32 32 30 27 29 32 30 29 32 33 36 35 37 38 40 42
87 85 80 80 73 68 66 61 58 56 51 49 48 48 46 42 43 42 40 41 44 42 43 45 44 38 36 36 37 36 35 30 28 30 31 31 32 34 34 39 37 36 37 40 43
92 88 82 77 74 68 67 61 63 62 58 53 53 51 51 49 43 45 46 45 44 46 44 43 46 45 43 43 40 38 37 32 30 31 34 33 33 37 39 41 42 39 40 43 45
95 95 91 85 76 71 71 68 64 63 65 60 55 54 53 52 49 45 47 46 44 44 46 47 46 47 50 51 46 45 43 40 36 33 36 35 38 38 41 44 45 44 45 46 48
98 102 96 95 82 79 76 74 72 65 68 65 63 57 56 55 52 50 50 49 50 49 46 44 47 46 49 50 47 45 46 43 42 41 41 40 42 41 41 47 45 46 48 48 52
101 104 101 95 88 85 84 80 77 79 74 72 71 68 65 58 55 56 52 50 52 51 53 48 46 45 48 48 45 44 48 46 46 44 45 45 49 44 43 48 49 50 52 53 54
109 107 108 101 94 90 93 94 86 80 78 74 75 73 73 74 72 62 60 53 52 54 55 54 51 51 50 49 46 50 51 52 51 52 50 52 52 50 46 50 53 53 53 55 57
115 116 114 114 108 101 100 99 91 89 86 90 79 79 78 74 75 76 68 64 57 56 58 60 57 56 57 50 50 51 52 52 49 51 54 54 54 54 48 50 54 55 57 55 58
118 119 116 116 113 108 106 105 100 98 95 92 82 83 84 84 80 84 84 83 75 65 64 64 62 62 58 58 54 54 53 53 49 46 48 51 56 55 54 53 57 59 60 62 64
115 121 117 116 120 116 111 114 109 102 101 96 97 94 91 90 88 89 88 86 80 74 71 69 67 67 65 64 62 60 58 57 57 54 51 51 53 50 51 51 54 60 62 63 66
120 117 119 117 117 116 115 117 117 109 109 108 104 103 100 92 94 94 91 88 84 84 80 74 74 73 75 75 71 71 68 66 63 58 54 55 57 56 56 56 54 57 61 65 66
126 121 118 116 116 119 118 117 117 117 118 112 113 106 104 101 93 95 98 97 93 85 87 82 82 82 80 81 79 77 76 70 65 62 61 64 61 65 63 62 62 61 63 64 64
115 125 124 120 112 113 117 119 119 120 119 117 114 116 112 109 102 99 94 96 96 93 90 87 87 86 86 85 80 77 80 79 71 68 66 67 65 69 68 68 64 62 61 62 64
117 119 123 125 123 115 113 118 120 125 120 117 113 109 109 111 108 103 104 103 96 93 94 92 90 89 88 87 85 81 78 75 73 71 71 73 70 71 71 70 67 65 64 65 64
119 121 122 118 116 126 120 112 118 120 117 119 117 114 113 111 108 107 107 102 101 97 91 93 93 92 90 89 88 85 84 82 75 77 73 71 70 71 74 75 70 65 69 64 61
118 119 115 115 119 124 126 124 126 121 112 104 106 113 114 112 113 112 107 106 107 102 101 99 98 97 94 92 91 88 84 84 79 75 73 74 72 73 77 74 70 70 65 58 55
123 124 120 121 121 121 121 125 131 128 118 105 104 106 109 109 112 112 109 106 107 106 104 101 101 99 99 97 95 91 86 85 82 80 77 74 73 76 77 74 71 66 58 56 50
130 128 127 129 130 131 127 127 125 122 124 109 106 108 101 101 107 107 104 103 103 105 105 103 102 104 102 99 96 95 93 90 86 82 78 75 72 74 75 73 70 62 60 53 47
121 127 130 127 128 135 130 123 116 115 114 115 111 112 109 104 102 100 102 102 100 103 103 103 104 101 99 99 98 95 91 89 87 82 75 70 71 74 74 69 65 64 57 49 47
117 115 118 123 129 124 124 125 118 119 121 112 112 110 108 113 109 107 105 105 102 100 99 100 98 97 96 96 95 92 89 87 86 82 79 76 70 70 64 65 62 60 59 55 51
112 113 114 117 116 113 115 119 123 124 125 122 120 116 113 114 113 109 107 105 105 100 100 99 100 96 93 91 89 89 89 87 83 80 75 74 62 68 70 67 63 63 63 59 55
115 111 110 108 105 106 108 111 114 118 124 123 123 122 120 119 117 114 109 108 105 103 101 98 98 97 94 91 90 87 86 84 80 78 72 66 61 62 65 73 69 63 64 63 63
119 111 106 99 95 94 96 96 101 105 109 113 116 118 121 123 123 120 116 112 112 107 104 101 100 96 93 90 88 82 83 82 77 72 66 71 68 67 73 80 75 77 75 70 71
116 112 107 102 97 94 91 88 89 93 96 99 102 107 113 117 121 125 122 119 118 115 112 107 104 100 96 91 88 85 80 76 74 78 79 82 76 83 85 81 82 82 79 76 74
104 109 110 104 101 98 89 86 80 80 85 91 95 96 97 100 103 106 110 116 123 121 118 112 112 105 106 102 98 92 91 93 92 93 98 92 89 90 91 90 90 88 81 78 75
Wind_Direction
237 248 246 240 245 246 247 240 241 240 244 249 247 248 251 254 257 256 267 270 274 279 278 280 272 273 279 283 278 278 284 288 295 305 320 324 327 334 333 334 339 344 348 346 344
241 243 242 239 246 243 245 243 240 247 242 243 243 246 254 256 259 259 258 261 269 274 278 276 270 271 273 282 274 290 285 283 287 295 306 316 320 324 330 326 331 335 339 341 342
240 241 244 243 242 244 242 241 244 243 248 243 244 247 249 255 256 257 259 257 261 268 276 273 270 275 277 277 281 287 286 285 284 293 296 301 315 320 325 321 325 329 334 335 337
236 239 244 238 240 243 241 240 240 241 243 242 245 247 251 252 257 254 258 259 261 264 270 270 271 273 273 275 275 284 279 281 284 286 296 302 313 313 319 318 320 328 330 332 334
232 234 237 237 239 241 238 237 238 242 244 244 246 248 251 252 256 255 257 260 257 261 264 266 270 273 275 277 275 278 278 279 288 294 293 302 310 318 314 316 319 324 325 329 331
232 230 231 234 238 239 242 238 242 245 246 245 244 242 248 252 251 255 255 262 261 260 261 262 266 269 277 280 276 271 278 279 285 289 293 297 303 312 311 311 318 320 320 324 325
229 229 230 232 232 237 242 240 243 247 244 244 246 247 247 251 256 251 254 261 263 260 260 258 264 269 271 273 277 275 274 272 278 285 292 293 295 307 311 309 313 316 319 321 322
228 231 230 232 232 233 235 239 240 245 246 244 245 248 250 252 256 255 255 256 258 262 263 262 262 271 274 273 273 275 273 272 274 280 285 292 294 303 309 309 314 314 315 319 322
229 231 232 234 234 233 240 239 241 238 243 247 245 247 250 254 254 261 258 257 257 259 263 267 267 268 273 272 276 274 275 274 277 279 284 287 290 301 305 306 312 313 316 316 319
230 232 232 232 236 238 238 241 241 239 240 244 242 249 250 250 256 260 260 263 262 258 260 263 268 271 272 274 273 277 276 275 278 281 281 287 288 295 298 301 305 311 312 314 317
231 232 231 234 236 238 239 239 242 241 243 240 243 244 249 253 257 261 261 268 266 260 257 260 263 264 273 275 271 269 270 277 279 282 289 290 288 295 294 297 300 305 308 311 313
230 233 234 233 235 238 239 240 244 240 241 244 245 248 246 251 255 259 261 263 265 264 266 258 261 264 266 269 272 273 274 273 277 279 282 289 293 296 298 299 300 302 305 307 310
230 233 233 234 237 238 238 239 241 239 239 244 245 248 246 247 252 256 258 261 261 264 262 257 257 264 265 266 270 273 275 279 277 279 281 287 290 292 292 298 301 303 305 306 309
232 232 233 234 235 237 237 238 239 242 242 243 243 246 247 248 249 253 256 259 259 256 259 259 262 263 264 265 270 270 272 275 277 278 283 283 285 289 291 294 296 299 302 309 311
234 234 233 233 234 235 237 237 241 241 241 242 245 246 245 248 249 249 250 253 255 255 257 259 260 262 261 264 267 268 270 273 275 276 280 283 285 287 289 295 297 299 303 308 309
234 234 236 234 234 234 235 238 240 241 242 244 241 244 247 250 249 248 251 252 251 253 258 259 259 259 261 264 266 268 270 272 274 276 279 282 284 286 289 294 298 299 303 307 308
233 233 236 236 238 233 236 234 237 239 241 242 241 244 246 246 249 250 249 251 254 255 257 259 259 260 262 263 265 266 269 272 273 273 277 279 284 283 287 293 296 298 301 302 305
234 233 233 235 235 237 236 234 238 237 239 240 243 245 247 247 249 250 252 254 255 256 258 260 261 262 265 266 265 267 270 272 273 274 276 279 280 282 287 291 295 296 298 300 303
233 231 233 235 234 235 240 240 239 238 236 236 241 244 246 248 249 251 252 255 255 257 259 261 262 264 264 265 266 269 271 272 273 274 276 279 280 281 286 289 292 293 294 298 300
233 232 232 233 233 237 240 239 241 242 237 236 236 240 242 246 248 248 252 254 255 257 259 259 259 261 263 264 265 267 268 271 273 274 277 278 278 279 283 287 289 289 293 296 300
234 234 235 236 237 236 238 240 241 241 242 241 235 237 237 239 243 246 249 250 252 255 257 257 259 259 261 264 264 266 268 269 271 273 273 272 275 279 282 283 282 288 291 297 300
236 235 236 236 237 239 239 238 239 240 242 242 242 242 242 240 241 244 245 248 250 252 254 255 258 259 261 263 265 267 269 269 271 272 271 276 278 277 275 276 282 287 292 292 295
235 235 235 237 238 238 239 240 239 239 240 242 241 242 241 242 245 247 248 246 246 249 250 253 256 257 258 259 261 263 265 268 270 272 274 272 270 273 278 279 281 284 287 288 291
235 235 236 238 239 238 238 239 241 241 242 244 244 243 242 242 244 246 248 249 249 248 250 251 252 254 254 257 258 259 262 263 266 268 268 270 269 273 276 277 279 279 280 282 287
236 237 236 237 239 239 238 239 241 242 243 243 244 244 246 246 245 245 246 246 247 250 253 254 254 255 257 257 256 260 262 263 265 263 265 269 269 267 271 275 280 281 282 283 287
236 235 236 234 235 237 238 237 238 239 240 241 242 243 244 244 245 246 247 245 246 249 250 251 252 257 260 262 263 265 269 267 262 263 263 264 268 270 271 276 278 278 284 283 285
240 235 234 234 234 235 237 235 236 238 240 241 242 244 245 246 247 247 248 248 247 247 248 251 250 253 254 256 258 259 260 260 260 259 262 264 262 265 270 271 275 276 275 276 278
Height
10748 10753 10759 10764 10768 10772 10777 10781 10785 10787 10791 10795 10799 10803 10806 10808 10810 10811 10812 10813 10814 10816 10818 10819 10820 10820 10820 10820 10820 10820 10819 10818 10817 10815 10813 10811 10808 10806 10803 10799 10798 10795 10791 10786 10781
10736 10742 10747 10753 10757 10761 10766 10772 10774 10779 10782 10785 10789 10794 10797 10800 10802 10804 10806 10807 10808 10809 10811 10813 10813 10815 10815 10815 10814 10815 10814 10813 10812 10810 10808 10806 10804 10801 10799 10796 10793 10789 10785 10782 10777
10721 10729 10735 10741 10746 10750 10755 10760 10764 10769 10773 10776 10780 10784 10787 10790 10794 10796 10797 10799 10801 10803 10804 10806 10807 10808 10809 10809 10809 10809 10809 10808 10807 10805 10803 10801 10799 10797 10794 10790 10788 10784 10780 10776 10771
10706 10715 10721 10728 10733 10737 10742 10748 10753 10757 10762 10766 10770 10774 10777 10781 10784 10787 10789 10792 10793 10794 10797 10799 10800 10801 10802 10802 10802 10803 10802 10801 10801 10799 10797 10795 10793 10792 10789 10783 10780 10778 10775 10771 10766
10688 10698 10706 10713 10719 10724 10729 10734 10740 10745 10750 10754 10759 10763 10767 10772 10775 10778 10781 10783 10784 10786 10788 10791 10793 10793 10794 10795 10796 10796 10796 10794 10794 10793 10790 10789 10787 10784 10783 10779 10775 10772 10768 10764 10760
10670 10679 10688 10696 10703 10710 10716 10722 10727 10733 10739 10743 10747 10751 10756 10761 10765 10768 10770 10774 10776 10777 10779 10782 10784 10785 10786 10787 10788 10789 10789 10788 10787 10787 10784 10782 10780 10779 10775 10772 10769 10766 10761 10757 10753
10650 10661 10670 10680 10685 10694 10701 10707 10714 10719 10725 10729 10734 10739 10743 10748 10753 10757 10761 10763 10766 10769 10770 10772 10775 10778 10778 10779 10780 10782 10781 10780 10779 10781 10778 10774 10771 10775 10770 10764 10762 10759 10755 10750 10746
10631 10643 10652 10660 10668 10675 10683 10691 10699 10705 10711 10715 10720 10725 10730 10735 10740 10745 10749 10752 10756 10758 10761 10763 10766 10768 10768 10769 10773 10775 10772 10771 10773 10773 10772 10769 10761 10767 10765 10757 10756 10751 10748 10743 10738
10609 10621 10630 10640 10650 10657 10667 10675 10683 10688 10695 10700 10706 10710 10716 10722 10726 10731 10737 10741 10745 10748 10751 10753 10756 10757 10757 10759 10766 10764 10765 10764 10765 10765 10765 10762 10753 10757 10758 10751 10748 10745 10742 10736 10731
10587 10595 10607 10619 10630 10641 10649 10657 10665 10672 10677 10683 10689 10695 10702 10705 10711 10716 10722 10729 10734 10738 10740 10742 10746 10747 10745 10754 10755 10754 10754 10754 10753 10757 10756 10754 10745 10747 10750 10745 10740 10737 10735 10730 10725
10565 10572 10586 10596 10608 10619 10629 10638 10647 10654 10660 10663 10674 10679 10685 10690 10694 10700 10707 10715 10720 10725 10727 10732 10734 10729 10738 10741 10744 10744 10745 10745 10745 10748 10747 10745 10738 10738 10738 10738 10733 10730 10726 10722 10717
10542 10550 10562 10572 10584 10596 10606 10617 10623 10635 10639 10647 10656 10661 10668 10674 10679 10686 10692 10698 10705 10709 10713 10717 10720 10721 10723 10728 10732 10734 10736 10734 10736 10738 10739 10735 10729 10729 10728 10725 10724 10721 10718 10714 10709
10519 10529 10537 10548 10558 10573 10584 10593 10603 10612 10618 10627 10636 10644 10649 10658 10663 10671 10676 10682 10687 10693 10695 10702 10706 10707 10711 10713 10717 10721 10723 10724 10726 10728 10729 10726 10720 10716 10718 10717 10714 10712 10709 10705 10700
10493 10505 10515 10523 10534 10552 10564 10567 10577 10586 10593 10606 10614 10628 10636 10641 10647 10653 10658 10662 10667 10672 10678 10686 10691 10692 10696 10699 10704 10708 10709 10713 10715 10717 10718 10715 10715 10703 10705 10707 10704 10703 10700 10696 10691
10467 10478 10488 10499 10517 10527 10531 10542 10550 10561 10565 10586 10600 10614 10616 10619 10634 10630 10635 10643 10650 10654 10660 10668 10673 10676 10679 10683 10687 10694 10695 10699 10703 10705 10707 10703 10705 10690 10692 10694 10693 10691 10690 10687 10683
10438 10451 10460 10477 10489 10506 10509 10515 10527 10530 10550 10572 10584 10591 10595 10602 10610 10614 10616 10623 10630 10635 10643 10651 10655 10658 10662 10666 10672 10678 10680 10684 10689 10692 10696 10688 10691 10683 10681 10680 10680 10681 10679 10676 10674
10411 10424 10435 10452 10462 10477 10485 10494 10488 10500 10535 10550 10564 10569 10573 10580 10587 10594 10600 10604 10610 10618 10629 10630 10637 10643 10648 10651 10655 10659 10664 10669 10676 10678 10681 10678 10679 10673 10669 10666 10669 10670 10667 10665 10663
10382 10397 10409 10426 10435 10447 10454 10464 10455 10491 10514 10530 10540 10547 10554 10559 10566 10575 10581 10587 10593 10600 10606 10610 10619 10626 10636 10636 10637 10641 10647 10651 10658 10663 10666 10667 10667 10661 10654 10655 10657 10658 10656 10655 10653
10355 10367 10382 10395 10405 10417 10422 10432 10437 10463 10494 10513 10522 10526 10532 10539 10544 10551 10560 10567 10573 10579 10584 10592 10601 10608 10613 10615 10619 10627 10630 10630 10639 10647 10651 10653 10653 10648 10641 10643 10644 10646 10646 10645 10644
10325 10340 10355 10361 10375 10384 10390 10402 10417 10453 10477 10492 10501 10504 10512 10517 10524 10529 10535 10547 10551 10557 10563 10574 10581 10588 10590 10595 10601 10606 10610 10613 10620 10630 10636 10641 10639 10634 10629 10628 10630 10631 10633 10633 10632
10294 10311 10325 10333 10342 10351 10372 10396 10419 10429 10443 10460 10475 10480 10488 10494 10499 10508 10514 10524 10529 10534 10541 10552 10559 10569 10572 10577 10581 10587 10592 10594 10600 10612 10618 10623 10625 10621 10619 10611 10614 10615 10618 10620 10622
10267 10284 10293 10302 10312 10340 10363 10381 10391 10402 10412 10431 10442 10454 10461 10469 10475 10483 10493 10499 10508 10514 10520 10527 10539 10550 10554 10557 10561 10568 10572 10574 10579 10590 10599 10608 10611 10605 10603 10598 10596 10599 10603 10606 10609
10243 10255 10262 10272 10296 10323 10342 10350 10362 10375 10385 10399 10412 10425 10436 10442 10450 10459 10469 10479 10487 10493 10498 10507 10520 10527 10534 10538 10542 10547 10552 10556 10561 10570 10584 10589 10595 10582 10582 10580 10583 10586 10588 10590 10595
10216 10230 10245 10261 10284 10299 10315 10328 10335 10348 10360 10371 10383 10397 10407 10416 10428 10438 10445 10454 10462 10471 10478 10485 10499 10506 10511 10519 10523 10529 10532 10539 10547 10555 10558 10569 10569 10562 10561 10558 10566 10572 10573 10576 10580
10193 10217 10234 10253 10267 10280 10290 10304 10313 10326 10336 10345 10355 10369 10380 10390 10400 10410 10420 10430 10437 10447 10454 10465 10473 10482 10488 10496 10503 10511 10517 10522 10528 10532 10538 10540 10545 10544 10542 10536 10555 10551 10555 10565 10568
10175 10200 10217 10233 10241 10253 10266 10286 10292 10299 10309 10319 10330 10337 10347 10359 10366 10378 10395 10407 10415 10425 10435 10446 10453 10460 10464 10471 10479 10489 10498 10502 10503 10505 10514 10517 10535 10523 10523 10532 10530 10533 10544 10548 10553
10162 10183 10195 10210 10219 10231 10254 10265 10273 10278 10287 10295 10304 10315 10328 10336 10347 10359 10369 10381 10392 10401 10414 10422 10431 10439 10446 10449 10458 10476 10480 10477 10481 10483 10483 10499 10507 10509 10508 10512 10518 10520 10524 10530 10535